{"data":{"norad_id":48229,"epoch":"2026-09-19T23:02:01.843584Z","epoch_age_seconds":68645,"freshness":"FRESH","line1":"1 48229U 21031V   26262.95974356  .00000024  00000+0  30038-4 0  9991","line2":"2 48229  87.8902 270.8013 0001811  89.0237 271.1100 13.14501378260836","mean_motion":13.14501378,"eccentricity":0.0001811,"inclination_deg":87.8902,"raan_deg":270.8013,"arg_perigee_deg":89.0237,"mean_anomaly_deg":271.11,"bstar":3.0038e-5,"rev_number":26083,"period_min":109.5472415701,"perigee_km":1204.4223738308,"apogee_km":1207.1692742997,"semimajor_km":7583.9328240652,"source":"CELESTRAK","updated_at":"2026-09-20T09:00:44.596087Z"}}